ARIANE 1 DEB, 27732

Orbit data source: Space-Track

ARIANE 1 DEB, 27732 is space debris in HEO originally from a launch on Mon, 24 Dec 1979 UTC launched from the French Guiana (FRGUI). Debris objects in space refer to the collection of defunct objects orbiting the Earth. Examples of debris include non-operational satellites, rocket bodies, and fragments generated from explosions, collisions, or faulty payload assembly.

Loading next visibility...
Identifier
27732, 1979-104S
Orbit
HEO
Country
Flag of FRFR
Related business
Manufacturer
Unknown
Mission
Spacecraft
Bus & Motor
Unknown
Mass
Unknown
Launch date (UTC)
1979-12-24 (46 years ago)
Launch vehicle
Unknown
Launch site
French Guiana (FRGUI)
Object type
Payload
Rocket body
Debris
Shape & HBR
Unknown shape, 0.3 m
Radar Cross Section
Medium (>0.1 m² and <1 m²)

Expand to show TLE details & history
Last TLE update: 4 days ago

TLE from 4 days ago
0 ARIANE 1 DEB
1 27732U 79104S   25292.17160288  .00000173  00000-0  32440-1 0  9990
2 27732  16.3774  69.1759 7306897  66.7766 351.3584  1.93162825 81382
Epoch: 2025-10-19T04:07Z
TLE epoch observation values (Epoch: 2025-10-19T04:07:06.488Z)
Latitude
0.00082°
Longitude
-20.60903°
Altitude
3,521.602 km
Speed
8.117 km/s
True Right ascension
04h 36m 14s
True Declination
0° 00' 03"
Sunlit
Object was in daylight at epoch
Visualization orbit readout
Latitude
Unknown
Longitude
Unknown
Altitude
Unknown
Speed
Unknown
Apparent Right ascension
Unknown
Apparent Declination
Unknown
Sunlit
N/A
Visualization observer readout
Local Sidereal Time
18:02:06
Azimuth
Unknown
Elevation
Unknown
Doppler factor
Unknown
Orbital elements
Apogee altitude
40,764.115 km
Perigee altitude
957.606 km
Semi-major axis
27,238.998 km
Eccentricity
0.73069
Inclination
16.3774°
RAAN
69.1759°
Arg. of periapsis
66.7766°
True anomaly
293.826°
Mean anomaly
351.3584°
Eccentric anomaly
331.17102°
Mean motion
0.48279 °/min
Orbital period
745.67 mins
BSTAR
0.03244
Loading maneuver chart data...
Computing Atmospheric mass density...
Loading historical data...
Loading historical data...
Loading historical data...
Loading historical data...
Loading historical data...
Loading historical data...
Loading historical data...

Documentation

Showing up to 5 results
|